| Date Time MST |
Temp °F |
RH % |
DewPt °F |
Wind mph |
Dir ° |
Gust mph |
Dir ° |
Press in Hg |
Solar W/m^2 |
Prec in |
|---|---|---|---|---|---|---|---|---|---|---|
| 2026-05-04 16:45 | 61.1 | 35.3 | 33.5 | 10.3 | 250 | 12.6 | 258 | 24.668 | 7.7 | 0.00 |
| 2026-05-04 16:40 | 61.1 | 35.5 | 33.7 | 9.0 | 260 | 12.2 | 274 | 24.665 | 9.6 | 0.00 |
| 2026-05-04 16:35 | 61.3 | 35.5 | 33.8 | 9.6 | 258 | 11.0 | 274 | 24.664 | 11.2 | 0.00 |
| 2026-05-04 16:30 | 61.4 | 35.1 | 33.6 | 8.3 | 260 | 12.1 | 270 | 24.661 | 13.4 | 0.00 |
| 2026-05-04 16:25 | 61.7 | 33.5 | 32.7 | 7.8 | 276 | 10.1 | 276 | 24.656 | 17.9 | 0.00 |
| 2026-05-04 16:20 | 61.9 | 33.1 | 32.5 | 8.2 | 299 | 12.0 | 301 | 24.655 | 23.7 | 0.00 |
| 2026-05-04 16:15 | 62.1 | 33.1 | 32.8 | 9.2 | 306 | 13.4 | 303 | 24.653 | 33.4 | 0.00 |
| 2026-05-04 16:10 | 62.5 | 32.7 | 32.7 | 11.0 | 320 | 13.1 | 303 | 24.648 | 47.3 | 0.00 |
| 2026-05-04 16:05 | 62.6 | 32.1 | 32.4 | 12.7 | 312 | 17.6 | 307 | 24.648 | 65.0 | 0.00 |
| 2026-05-04 16:00 | 62.7 | 32.8 | 33.1 | 11.8 | 304 | 16.1 | 300 | 24.648 | 72.7 | 0.00 |
| 2026-05-04 15:55 | 63.1 | 32.6 | 33.2 | 14.8 | 310 | 18.9 | 314 | 24.647 | 91.0 | 0.00 |
| 2026-05-04 15:50 | 63.8 | 32.5 | 33.8 | 14.1 | 304 | 18.4 | 305 | 24.645 | 146.6 | 0.00 |
| 2026-05-04 15:45 | 64.3 | 30.9 | 32.9 | 13.3 | 322 | 17.7 | 323 | 24.645 | 257.7 | 0.00 |
| 2026-05-04 15:40 | 63.7 | 31.8 | 33.1 | 10.4 | 311 | 15.4 | 308 | 24.643 | 208.1 | 0.00 |
| 2026-05-04 15:35 | 64.1 | 32.2 | 33.8 | 13.4 | 311 | 15.8 | 311 | 24.642 | 289.4 | 0.00 |
| 2026-05-04 15:30 | 64.2 | 31.2 | 33.1 | 15.2 | 323 | 19.5 | 307 | 24.643 | 478.3 | 0.00 |
| 2026-05-04 15:25 | 65.1 | 31.6 | 34.2 | 14.7 | 312 | 19.2 | 327 | 24.642 | 379.0 | 0.00 |
| 2026-05-04 15:20 | 64.1 | 30.8 | 32.7 | 14.1 | 294 | 17.6 | 305 | 24.641 | 625.4 | 0.00 |
| 2026-05-04 15:15 | 62.7 | 33.5 | 33.5 | 14.0 | 325 | 17.6 | 275 | 24.644 | 395.3 | 0.00 |
| 2026-05-04 15:10 | 61.5 | 33.4 | 32.5 | 15.4 | 278 | 19.2 | 287 | 24.650 | 323.4 | 0.00 |
| 2026-05-04 15:05 | 61.4 | 33.3 | 32.3 | 14.5 | 291 | 18.5 | 274 | 24.655 | 132.3 | 0.00 |
| 2026-05-04 15:00 | 61.7 | 33.3 | 32.5 | 15.7 | 287 | 21.1 | 289 | 24.657 | 155.8 | 0.00 |
| 2026-05-04 14:55 | 62.4 | 32.4 | 32.5 | 15.6 | 292 | 20.1 | 291 | 24.660 | 208.4 | 0.00 |
| 2026-05-04 14:50 | 62.9 | 32.3 | 32.8 | 14.5 | 282 | 17.1 | 266 | 24.663 | 258.3 | 0.00 |
| 2026-05-04 14:45 | 63.2 | 31.1 | 32.2 | 14.4 | 304 | 18.0 | 304 | 24.664 | 381.3 | 0.00 |
| 2026-05-04 14:40 | 62.9 | 30.8 | 31.7 | 12.2 | 293 | 17.5 | 293 | 24.664 | 287.7 | 0.00 |
| 2026-05-04 14:35 | 62.7 | 33.2 | 33.4 | 9.3 | 331 | 13.3 | 314 | 24.666 | 230.4 | 0.00 |
| 2026-05-04 14:30 | 62.7 | 32.1 | 32.5 | 12.7 | 315 | 17.5 | 314 | 24.668 | 236.1 | 0.00 |
| 2026-05-04 14:25 | 62.2 | 32.6 | 32.4 | 8.3 | 318 | 12.1 | 306 | 24.669 | 268.5 | 0.00 |
| 2026-05-04 14:20 | 62.3 | 36.0 | 35.0 | 7.7 | 271 | 10.3 | 257 | 24.672 | 302.0 | 0.00 |
| Date Time MST |
Temp °C |
RH % |
DewPt °C |
Wind m/s |
Dir ° |
Gust m/s |
Dir ° |
Press hPa |
Solar W/m^2 |
Prec mm |
|---|---|---|---|---|---|---|---|---|---|---|
| 2026-05-04 16:45 | 16.2 | 35.3 | 0.8 | 4.6 | 250 | 5.6 | 258 | 835.34 | 7.7 | 0.00 |
| 2026-05-04 16:40 | 16.2 | 35.5 | 0.9 | 4.0 | 260 | 5.5 | 274 | 835.26 | 9.6 | 0.00 |
| 2026-05-04 16:35 | 16.3 | 35.5 | 1.0 | 4.3 | 258 | 4.9 | 274 | 835.21 | 11.2 | 0.00 |
| 2026-05-04 16:30 | 16.4 | 35.1 | 0.9 | 3.7 | 260 | 5.4 | 270 | 835.11 | 13.4 | 0.00 |
| 2026-05-04 16:25 | 16.5 | 33.5 | 0.4 | 3.5 | 276 | 4.5 | 276 | 834.95 | 17.9 | 0.00 |
| 2026-05-04 16:20 | 16.6 | 33.1 | 0.3 | 3.7 | 299 | 5.4 | 301 | 834.92 | 23.7 | 0.00 |
| 2026-05-04 16:15 | 16.7 | 33.1 | 0.4 | 4.1 | 306 | 6.0 | 303 | 834.84 | 33.4 | 0.00 |
| 2026-05-04 16:10 | 16.9 | 32.7 | 0.4 | 4.9 | 320 | 5.9 | 303 | 834.69 | 47.3 | 0.00 |
| 2026-05-04 16:05 | 17.0 | 32.1 | 0.2 | 5.7 | 312 | 7.9 | 307 | 834.69 | 65.0 | 0.00 |
| 2026-05-04 16:00 | 17.1 | 32.8 | 0.6 | 5.3 | 304 | 7.2 | 300 | 834.68 | 72.7 | 0.00 |
| 2026-05-04 15:55 | 17.3 | 32.6 | 0.7 | 6.6 | 310 | 8.5 | 314 | 834.65 | 91.0 | 0.00 |
| 2026-05-04 15:50 | 17.7 | 32.5 | 1.0 | 6.3 | 304 | 8.2 | 305 | 834.59 | 146.6 | 0.00 |
| 2026-05-04 15:45 | 17.9 | 30.9 | 0.5 | 6.0 | 322 | 7.9 | 323 | 834.57 | 257.7 | 0.00 |
| 2026-05-04 15:40 | 17.6 | 31.8 | 0.6 | 4.7 | 311 | 6.9 | 308 | 834.50 | 208.1 | 0.00 |
| 2026-05-04 15:35 | 17.8 | 32.2 | 1.0 | 6.0 | 311 | 7.1 | 311 | 834.46 | 289.4 | 0.00 |
| 2026-05-04 15:30 | 17.9 | 31.2 | 0.6 | 6.8 | 323 | 8.7 | 307 | 834.50 | 478.3 | 0.00 |
| 2026-05-04 15:25 | 18.4 | 31.6 | 1.2 | 6.6 | 312 | 8.6 | 327 | 834.49 | 379.0 | 0.00 |
| 2026-05-04 15:20 | 17.8 | 30.8 | 0.4 | 6.3 | 294 | 7.9 | 305 | 834.45 | 625.4 | 0.00 |
| 2026-05-04 15:15 | 17.1 | 33.5 | 0.8 | 6.3 | 325 | 7.9 | 275 | 834.54 | 395.3 | 0.00 |
| 2026-05-04 15:10 | 16.4 | 33.4 | 0.3 | 6.9 | 278 | 8.6 | 287 | 834.74 | 323.4 | 0.00 |
| 2026-05-04 15:05 | 16.3 | 33.3 | 0.1 | 6.5 | 291 | 8.3 | 274 | 834.91 | 132.3 | 0.00 |
| 2026-05-04 15:00 | 16.5 | 33.3 | 0.3 | 7.0 | 287 | 9.4 | 289 | 834.98 | 155.8 | 0.00 |
| 2026-05-04 14:55 | 16.9 | 32.4 | 0.3 | 7.0 | 292 | 9.0 | 291 | 835.09 | 208.4 | 0.00 |
| 2026-05-04 14:50 | 17.2 | 32.3 | 0.5 | 6.5 | 282 | 7.7 | 266 | 835.17 | 258.3 | 0.00 |
| 2026-05-04 14:45 | 17.4 | 31.1 | 0.1 | 6.4 | 304 | 8.0 | 304 | 835.23 | 381.3 | 0.00 |
| 2026-05-04 14:40 | 17.2 | 30.8 | -0.2 | 5.4 | 293 | 7.8 | 293 | 835.21 | 287.7 | 0.00 |
| 2026-05-04 14:35 | 17.1 | 33.2 | 0.8 | 4.1 | 331 | 5.9 | 314 | 835.30 | 230.4 | 0.00 |
| 2026-05-04 14:30 | 17.1 | 32.1 | 0.3 | 5.7 | 315 | 7.8 | 314 | 835.36 | 236.1 | 0.00 |
| 2026-05-04 14:25 | 16.8 | 32.6 | 0.2 | 3.7 | 318 | 5.4 | 306 | 835.38 | 268.5 | 0.00 |
| 2026-05-04 14:20 | 16.8 | 36.0 | 1.6 | 3.4 | 271 | 4.6 | 257 | 835.51 | 302.0 | 0.00 |